[[{"header":{"parameterUnit":"m.s-1","parameterCategory":1,"la1":30.2991,"la2":30.254,"lo1":-89.0895,"lo2":-89.0444,"dy":0.0017,"dx":0.0017,"nx":28,"ny":28,"refTime":"2024-02-21T03:00:00:Z","depth":0,"parameterNumber":2,"parameterNumberName":"U-component_of_WINDS"},"data":[0,0,0,0,0,0,0,0,0,0,0,0,0,0,0,0,0,0,0,0,0,0,0,0,0,0,0,0,0,0,0,0,0,0,0,0,0,0,0,0,0,0,0,0,0,0,0,0,0,0,0,0,0,0,0,0,0,0,2.4863,2.4863,0,2.487,2.4871,2.4871,2.4802,2.48,2.4798,2.4796,2.4811,2.4813,2.4815,0,0,0,0,0,0,0,0,0,0,0,0,0,2.4795,2.4796,2.4863,2.4863,2.4863,2.487,2.4871,2.4871,2.4802,2.48,2.4798,2.4795,2.481,2.4813,2.4815,0,0,0,0,0,0,0,0,0,0,0,0,0,2.4816,2.4797,2.4863,2.483,2.4827,2.487,2.4871,2.4871,2.4803,2.48,2.4797,2.4794,2.4809,2.4812,2.4816,2.4894,0,0,2.4826,2.4827,0,0,0,0,0,0,0,0,2.4815,2.4818,2.4834,2.4832,2.4829,2.4832,2.4852,2.4879,2.4804,2.4812,2.4796,2.4793,2.4821,2.4823,2.4831,2.4894,2.4895,2.4826,2.4828,2.4829,2.483,0,0,0,0,0,0,0,2.4813,2.4818,2.4866,2.4835,2.4831,2.4816,2.4816,2.4857,2.4833,2.4811,2.4806,2.4808,2.4819,2.4828,2.4831,2.4895,2.4826,2.4829,2.4831,2.4832,2.5024,2.5027,0,0,0,0,0,0,2.4816,2.4817,2.4866,2.4866,2.4814,2.482,2.482,2.4834,2.4832,2.4829,2.481,2.4804,2.4824,2.4827,2.4831,2.4922,2.4829,2.4832,2.4834,2.5021,2.5025,2.5028,0,0,0,0,0,0,2.4814,2.482,2.4865,2.484,2.4845,2.4824,2.4841,2.4836,2.4845,2.4831,2.4827,2.4823,2.4822,2.4826,2.4878,2.4922,2.4834,2.4837,2.5017,2.5022,2.5026,2.5106,0,0,0,0,0,0,2.4813,2.482,2.4848,2.4841,2.4846,2.4911,2.4844,2.4838,2.485,2.4842,2.4843,2.484,2.482,2.4874,2.4882,2.4925,2.4839,2.5013,2.5019,2.5025,2.5099,2.5113,2.5124,0,0,0,0,0,2.481,2.4872,2.485,2.4856,2.488,2.4913,2.4917,2.489,2.4854,2.4883,2.4874,2.484,2.4916,2.488,2.4888,2.4933,2.501,2.5018,2.5024,2.5094,2.511,2.5124,0,0,0,0,0,0,2.4887,2.487,2.4846,2.4906,2.4912,2.4902,2.4937,2.4908,2.4926,2.4918,2.4887,2.4887,2.4945,2.4944,2.4904,2.5009,2.4957,2.4966,2.5007,2.5023,2.5035,2.5034,2.4842,0,0,0,0,0,2.491,2.4936,2.4921,2.4976,2.498,2.4958,2.4972,2.4951,2.4956,2.4958,2.4953,2.4961,2.4987,2.5005,2.5027,2.5099,2.5099,2.5134,2.5147,2.5157,2.5165,2.5204,2.522,2.5051,2.5051,2.5051,0,0,2.496,2.4954,2.4973,2.4991,2.4993,2.5023,2.4961,2.4995,2.5017,2.4964,2.5012,2.5009,2.5016,2.5078,2.5106,2.508,2.5212,2.5166,2.5174,2.5177,2.5213,2.5229,2.5243,2.5056,2.5055,2.5054,0,0,2.5065,2.5063,2.5108,2.5111,2.5113,2.5098,2.511,2.5104,2.5099,2.5147,2.5108,2.5135,2.518,2.5186,2.5195,2.5304,2.5274,2.5312,2.5378,2.5416,2.5429,2.5441,2.548,2.5495,2.5321,2.5321,2.5321,0,2.5127,2.5168,2.5136,2.5172,2.5182,2.5134,2.5181,2.5186,2.5197,2.5206,2.5176,2.523,2.5232,2.5295,2.5321,2.533,2.5343,2.5312,2.543,2.5441,2.5451,2.5489,2.5504,2.5326,2.5325,2.5325,2.5324,0,2.5244,2.5273,2.531,2.532,2.5334,2.5376,2.5352,2.5371,2.5349,2.5338,2.5388,2.5388,2.541,2.5423,2.5403,2.5484,2.5468,2.5435,2.5382,2.5473,2.5507,2.5521,2.5332,2.5331,2.5329,2.5328,0,0,2.5397,2.5388,2.5403,2.5406,2.5406,2.5429,2.547,2.5489,2.5506,2.5516,2.555,2.5589,2.5557,2.5568,2.5548,2.5582,2.5669,2.5544,2.5544,2.5568,2.5759,2.5785,2.5802,2.5648,2.5651,2.5653,2.5759,0,2.55,2.5566,2.5539,2.5609,2.5637,2.5591,2.5626,2.5631,2.5622,2.5646,2.5637,2.5665,2.5622,2.5628,2.5659,2.5651,2.5707,2.5643,2.5682,2.5683,2.5682,2.582,2.5847,2.5947,2.5772,2.5775,2.5776,0,2.5629,2.5641,2.5714,2.5708,2.5719,2.5751,2.5767,2.579,2.5795,2.5786,2.5798,2.5771,2.5813,2.576,2.5817,2.5775,2.5789,2.5788,2.5791,2.5794,2.5736,2.5828,2.5978,2.5994,2.5797,2.5795,2.5794,0,2.5734,2.577,2.5817,2.5822,2.5817,2.5841,2.5841,2.5842,2.5856,2.5871,2.588,2.5901,2.5912,2.5929,2.5909,2.5872,2.5971,2.5916,2.5966,2.5967,2.5989,2.5988,2.6145,2.5998,2.5997,2.5997,2.5997,0,2.5852,2.5898,2.5864,2.5894,2.5945,2.5914,2.5966,2.5961,2.5963,2.5992,2.5955,2.5983,2.5955,2.5981,2.5966,2.6017,2.6022,2.6018,2.6013,2.6021,2.6022,2.6031,2.6024,2.6001,2.6,2.5999,2.5999,0,2.5978,2.5957,2.6006,2.5997,2.5996,2.6035,2.6028,2.6056,2.6044,2.6082,2.6089,2.6072,2.6101,2.6082,2.6113,2.6103,2.6169,2.6155,2.6167,2.6163,2.6214,2.621,2.6383,2.6404,2.6243,2.6244,2.6246,0,2.6055,2.6089,2.6083,2.6099,2.6101,2.6127,2.614,2.6112,2.6128,2.6137,2.6164,2.619,2.6209,2.6259,2.625,2.6273,2.626,2.6319,2.6263,2.627,2.6262,2.626,2.6264,2.633,2.6332,2.6334,2.6335,0,2.6193,2.6181,2.6201,2.6218,2.6234,2.6247,2.6256,2.6272,2.6244,2.6264,2.6292,2.6307,2.6337,2.6364,2.6384,2.6385,2.6357,2.6352,2.6365,2.6374,2.638,2.6378,2.6198,2.6349,2.6347,2.6346,2.6346,2.6345,2.6297,2.6326,2.6326,2.635,2.6354,2.6364,2.6389,2.6381,2.6403,2.6424,2.6407,2.6442,2.6447,2.647,2.6476,2.6503,2.648,2.6499,2.6503,2.6508,2.6516,2.6375,2.6507,2.6507,2.6506,2.6506,2.6506,0,2.6434,2.6432,2.6454,2.6468,2.6487,2.6456,2.6465,2.6484,2.6514,2.652,2.654,2.6573,2.6599,2.6593,2.6616,2.664,2.6627,2.6647,2.6645,2.6647,2.6535,2.6522,2.6657,2.6657,2.6657,2.6657,2.6657,2.6657,2.6508,2.6554,2.6543,2.6591,2.659,2.6621,2.6629,2.6639,2.6644,2.6683,2.6703,2.6698,2.67,2.6723,2.6746,2.6744,2.6755,2.678,2.6773,2.6669,2.6654,2.664,2.6627,2.6782,2.6782,2.6882,2.6883,2.6883]},{"header":{"parameterUnit":"m.s-1","parameterCategory":1,"la1":30.2991,"la2":30.254,"lo1":-89.0895,"lo2":-89.0444,"dy":0.0017,"dx":0.0017,"nx":28,"ny":28,"refTime":"2024-02-21T03:00:00:Z","depth":0,"parameterNumber":3,"parameterNumberName":"V-component_of_WINDS"},"data":[0,0,0,0,0,0,0,0,0,0,0,0,0,0,0,0,0,0,0,0,0,0,0,0,0,0,0,0,0,0,0,0,0,0,0,0,0,0,0,0,0,0,0,0,0,0,0,0,0,0,0,0,0,0,0,0,0,0,6.0359,6.0361,0,6.0502,6.0503,6.0505,6.051,6.0508,6.0507,6.0505,6.0652,6.0657,6.0663,0,0,0,0,0,0,0,0,0,0,0,0,0,6.0092,6.0097,6.0359,6.0361,6.0363,6.0502,6.0504,6.0505,6.051,6.0508,6.0506,6.0504,6.065,6.0657,6.0663,0,0,0,0,0,0,0,0,0,0,0,0,0,6.0219,6.0099,6.0359,6.0382,6.0385,6.0501,6.0504,6.0506,6.0511,6.0508,6.0506,6.0503,6.0648,6.0656,6.0664,6.0767,0,0,6.069,6.0693,0,0,0,0,0,0,0,0,6.0212,6.0229,6.0377,6.038,6.0384,6.0485,6.0463,6.0594,6.0511,6.0463,6.0505,6.0502,6.0599,6.0611,6.0643,6.0774,6.078,6.069,6.0695,6.0699,6.0701,0,0,0,0,0,0,0,6.0203,6.0223,6.0415,6.0379,6.0384,6.0385,6.0401,6.0488,6.0544,6.0467,6.0468,6.0485,6.06,6.0635,6.0647,6.0783,6.069,6.0697,6.0703,6.0706,6.1007,6.1009,0,0,0,0,0,0,6.0189,6.0215,6.0411,6.042,6.029,6.0392,6.0409,6.0456,6.0543,6.0554,6.0487,6.0484,6.0622,6.0637,6.0652,6.078,6.0699,6.0707,6.0711,6.1004,6.1007,6.101,0,0,0,0,0,0,6.0184,6.0207,6.0405,6.0318,6.0343,6.04,6.0452,6.046,6.0495,6.0558,6.0568,6.0512,6.0621,6.064,6.0739,6.0785,6.071,6.0718,6.1,6.1005,6.1009,6.1035,0,0,0,0,0,0,6.0176,6.0205,6.0244,6.0319,6.0348,6.0489,6.0455,6.0464,6.0509,6.0507,6.0584,6.0594,6.062,6.0726,6.0747,6.0795,6.0724,6.0996,6.1002,6.1007,6.103,6.104,6.1048,0,0,0,0,0,6.0167,6.0246,6.0246,6.027,6.0398,6.0492,6.0509,6.0537,6.0513,6.0553,6.0594,6.0592,6.0776,6.0736,6.076,6.0811,6.0993,6.1,6.1007,6.1026,6.1038,6.1048,0,0,0,0,0,0,6.0175,6.0256,6.0257,6.0362,6.042,6.0492,6.0544,6.0548,6.0614,6.061,6.0642,6.066,6.0758,6.0794,6.0748,6.0916,6.0882,6.0894,6.0889,6.09,6.0909,6.0899,6.0731,0,0,0,0,0,6.0189,6.0258,6.0325,6.0412,6.044,6.0487,6.0529,6.0546,6.0607,6.0632,6.0679,6.0739,6.0811,6.0857,6.0926,6.1035,6.1053,6.1082,6.109,6.1097,6.1108,6.1169,6.1183,6.1033,6.1033,6.1033,0,0,6.0219,6.0272,6.0313,6.0415,6.0461,6.0533,6.0508,6.0584,6.0638,6.0644,6.074,6.0777,6.0846,6.095,6.0998,6.0983,6.1153,6.1106,6.1111,6.1118,6.1178,6.1192,6.1204,6.1037,6.1037,6.1036,0,0,6.0311,6.0357,6.0435,6.0482,6.0553,6.0584,6.0602,6.0675,6.07,6.0796,6.0803,6.0867,6.0989,6.1039,6.108,6.1191,6.1192,6.1212,6.1259,6.1318,6.133,6.1341,6.1382,6.1396,6.1222,6.1222,6.1222,0,6.0339,6.0447,6.0474,6.0551,6.0596,6.0604,6.0684,6.0729,6.0819,6.085,6.0832,6.0986,6.1033,6.115,6.1177,6.1209,6.1233,6.1204,6.1326,6.1337,6.1348,6.1387,6.1402,6.1224,6.1224,6.1223,6.1223,0,6.0479,6.0553,6.0608,6.0695,6.0746,6.0824,6.0864,6.0912,6.0925,6.0958,6.1057,6.1114,6.1195,6.1224,6.1236,6.1343,6.1332,6.1319,6.1286,6.1364,6.1402,6.1417,6.1227,6.1226,6.1226,6.1225,0,0,6.058,6.0682,6.0701,6.0741,6.0821,6.0879,6.0958,6.1037,6.1079,6.1141,6.1209,6.1312,6.1302,6.1348,6.1367,6.1419,6.1505,6.1401,6.1403,6.1419,6.1628,6.1637,6.1654,6.1506,6.1509,6.1511,6.1622,0,6.0681,6.0821,6.0849,6.097,6.104,6.1049,6.1118,6.1175,6.1208,6.1272,6.1309,6.1382,6.1362,6.1391,6.1443,6.1484,6.1548,6.1476,6.1571,6.1574,6.1554,6.1674,6.1684,6.1786,6.1637,6.164,6.1641,0,6.0818,6.0884,6.1012,6.1083,6.1114,6.1175,6.1251,6.1312,6.1377,6.1397,6.145,6.1463,6.1546,6.1508,6.1623,6.1574,6.1614,6.164,6.1645,6.1656,6.1613,6.1689,6.1819,6.1835,6.1665,6.1663,6.1661,0,6.0881,6.1001,6.1094,6.1128,6.1213,6.1256,6.1293,6.1355,6.1402,6.1468,6.1499,6.1574,6.1615,6.1673,6.1706,6.1676,6.182,6.1785,6.184,6.184,6.1871,6.1869,6.2011,6.1895,6.1895,6.1894,6.1894,0,6.0992,6.1071,6.1124,6.1181,6.127,6.1301,6.1388,6.1425,6.1481,6.1546,6.1558,6.1619,6.1658,6.1726,6.1752,6.1844,6.1863,6.1882,6.1889,6.1882,6.188,6.191,6.1904,6.1899,6.1898,6.1897,6.1896,0,6.1077,6.1116,6.1218,6.129,6.131,6.1373,6.1435,6.1491,6.1524,6.1607,6.1628,6.168,6.176,6.1798,6.1897,6.1915,6.202,6.2021,6.1998,6.2001,6.2055,6.205,6.2222,6.2247,6.2113,6.2114,6.2115,0,6.1146,6.1207,6.1286,6.133,6.1369,6.144,6.1488,6.1521,6.157,6.1649,6.1696,6.1776,6.1842,6.1969,6.2016,6.2092,6.2096,6.2151,6.2108,6.21,6.2099,6.2095,6.2102,6.2159,6.2161,6.2162,6.2162,0,6.1265,6.1281,6.1349,6.1424,6.1481,6.1542,6.1601,6.1637,6.168,6.1735,6.1816,6.1868,6.1969,6.2049,6.2128,6.2167,6.2173,6.2176,6.2193,6.2188,6.2173,6.2183,6.2021,6.2172,6.2171,6.217,6.217,6.2169,6.1346,6.1401,6.1465,6.1541,6.1589,6.1645,6.1702,6.1742,6.1811,6.1895,6.1911,6.1998,6.2062,6.2169,6.2211,6.228,6.2268,6.2292,6.2299,6.2305,6.2308,6.216,6.2294,6.2294,6.2294,6.2294,6.2294,0,6.1467,6.1508,6.1577,6.1661,6.1721,6.172,6.1786,6.1837,6.1913,6.1972,6.2037,6.2131,6.2209,6.2262,6.2341,6.2387,6.2391,6.2406,6.2404,6.2413,6.2314,6.2292,6.2401,6.2401,6.2401,6.2401,6.2401,6.2401,6.1536,6.163,6.1654,6.1772,6.1814,6.1899,6.1937,6.1989,6.2037,6.2141,6.2206,6.224,6.2297,6.2381,6.2453,6.2466,6.2495,6.2511,6.2525,6.2431,6.242,6.2409,6.2389,6.2517,6.2517,6.2619,6.262,6.262]}]]